AAL623 KPHX-KMCI

Flight info

Callsign AAL623
Flight time 2h 9m
Altitude 35000
Route FORPE1 ABQ LBL ZOURA WUTNG3
Aircraft A321/M-SDE3FGHIRWY/LB1

Departure

Time 2026-05-07 02:16
Airport Phoenix Sky Harbor International Airport (KPHX)

Arrival

Time 2026-05-07 04:25
Airport Kansas City International Airport (KMCI)
Time Latitude Longitude Altitude Speed Heading
2026-05-07 01:39 33.43799 -112.00249 1131 ft 0 kts 105°
2026-05-07 02:00 33.43803 -112.00272 1136 ft 4 kts 82°
2026-05-07 02:01 33.43793 -112.00296 1133 ft 4 kts 30°
2026-05-07 02:01 33.43776 -112.00303 1136 ft 1 kts
2026-05-07 02:01 33.43773 -112.00303 1135 ft 0 kts
2026-05-07 02:07 33.43777 -112.00303 1136 ft 1 kts 360°
2026-05-07 02:07 33.43803 -112.00303 1134 ft 6 kts 360°
2026-05-07 02:08 33.43859 -112.00303 1134 ft 10 kts 360°
2026-05-07 02:08 33.43903 -112.00240 1131 ft 13 kts 85°
2026-05-07 02:08 33.43905 -112.00122 1131 ft 15 kts 89°
2026-05-07 02:08 33.43904 -111.99998 1131 ft 15 kts 90°
2026-05-07 02:09 33.43904 -111.99870 1131 ft 16 kts 90°
2026-05-07 02:09 33.43904 -111.99738 1132 ft 16 kts 90°
2026-05-07 02:09 33.43904 -111.99602 1132 ft 17 kts 90°
2026-05-07 02:09 33.43904 -111.99462 1132 ft 17 kts 91°
2026-05-07 02:10 33.43904 -111.99341 1132 ft 14 kts 90°
2026-05-07 02:10 33.43885 -111.99241 1134 ft 12 kts 142°
2026-05-07 02:10 33.43800 -111.99230 1131 ft 13 kts 180°
2026-05-07 02:10 33.43708 -111.99230 1132 ft 14 kts 180°
2026-05-07 02:11 33.43611 -111.99231 1132 ft 14 kts 180°
2026-05-07 02:11 33.43510 -111.99231 1131 ft 15 kts 180°
2026-05-07 02:11 33.43405 -111.99231 1133 ft 15 kts 180°
2026-05-07 02:11 33.43308 -111.99231 1131 ft 11 kts 180°
2026-05-07 02:12 33.43231 -111.99244 1133 ft 11 kts 210°
2026-05-07 02:12 33.43200 -111.99276 1136 ft 0 kts 224°
2026-05-07 02:14 33.43199 -111.99278 1135 ft 1 kts 224°
2026-05-07 02:14 33.43182 -111.99297 1134 ft 4 kts 224°
2026-05-07 02:14 33.43164 -111.99319 1137 ft 4 kts 224°
2026-05-07 02:15 33.43128 -111.99359 1136 ft 10 kts 223°
2026-05-07 02:15 33.43105 -111.99464 1135 ft 18 kts 268°
2026-05-07 02:15 33.43105 -111.99826 1135 ft 77 kts 270°
2026-05-07 02:15 33.43105 -112.00717 1133 ft 136 kts 270°
2026-05-07 02:16 33.43105 -112.02040 1201 ft 174 kts 270°
2026-05-07 02:16 33.43122 -112.03438 1922 ft 164 kts 269°
2026-05-07 02:16 33.43145 -112.04821 2363 ft 169 kts 271°
2026-05-07 02:16 33.43182 -112.06222 2927 ft 168 kts 272°
2026-05-07 02:17 33.43234 -112.07627 3385 ft 174 kts 272°
2026-05-07 02:17 33.43277 -112.09162 3522 ft 194 kts 271°
2026-05-07 02:17 33.43315 -112.10866 3642 ft 215 kts 271°
2026-05-07 02:17 33.43357 -112.12735 3769 ft 236 kts 272°
2026-05-07 02:18 33.43407 -112.14740 4323 ft 242 kts 272°
2026-05-07 02:18 33.43467 -112.16756 5015 ft 244 kts 276°
2026-05-07 02:18 33.44012 -112.18654 5589 ft 245 kts 310°
2026-05-07 02:18 33.45407 -112.19773 6187 ft 246 kts 348°
2026-05-07 02:19 33.47114 -112.19986 6822 ft 248 kts 360°
2026-05-07 02:19 33.48847 -112.19946 7474 ft 251 kts
2026-05-07 02:19 33.50592 -112.19839 8146 ft 252 kts
2026-05-07 02:19 33.52351 -112.19732 8839 ft 253 kts
2026-05-07 02:20 33.54090 -112.19347 9356 ft 262 kts 17°
2026-05-07 02:20 33.55900 -112.18775 9755 ft 274 kts 17°
2026-05-07 02:20 33.57764 -112.18207 10256 ft 283 kts 16°
2026-05-07 02:20 33.59747 -112.17606 10382 ft 304 kts 18°
2026-05-07 02:21 33.61077 -112.16985 10476 ft 316 kts 29°
2026-05-07 02:21 33.62876 -112.15405 10839 ft 326 kts 45°
2026-05-07 02:21 33.64445 -112.13409 11382 ft 330 kts 47°
2026-05-07 02:21 33.66028 -112.11392 11989 ft 334 kts 47°
2026-05-07 02:22 33.67631 -112.09357 12583 ft 337 kts 47°
2026-05-07 02:22 33.69247 -112.07303 13182 ft 340 kts 47°
2026-05-07 02:22 33.70881 -112.05222 13776 ft 344 kts 47°
2026-05-07 02:22 33.72483 -112.03077 14305 ft 347 kts 53°
2026-05-07 02:23 33.73709 -112.00576 14824 ft 351 kts 66°
2026-05-07 02:23 33.74413 -111.97758 15343 ft 356 kts 79°
2026-05-07 02:23 33.74536 -111.94773 15865 ft 361 kts 93°
2026-05-07 02:23 33.74281 -111.91757 16419 ft 364 kts 94°
2026-05-07 02:24 33.74019 -111.88718 16963 ft 367 kts 94°
2026-05-07 02:24 33.73760 -111.85651 17506 ft 370 kts 94°
2026-05-07 02:24 33.73501 -111.82559 18044 ft 373 kts 94°
2026-05-07 02:24 33.73239 -111.79445 18548 ft 376 kts 94°
2026-05-07 02:25 33.72977 -111.76310 19026 ft 378 kts 94°
2026-05-07 02:25 33.72716 -111.73154 19499 ft 381 kts 94°
2026-05-07 02:25 33.72452 -111.69973 19972 ft 384 kts 94°
2026-05-07 02:25 33.72181 -111.66776 20442 ft 387 kts 94°
2026-05-07 02:26 33.71905 -111.63551 20910 ft 389 kts 94°
2026-05-07 02:26 33.71628 -111.60305 21378 ft 392 kts 94°
2026-05-07 02:26 33.71350 -111.57041 21830 ft 395 kts 94°
2026-05-07 02:26 33.71068 -111.53751 22283 ft 397 kts 94°
2026-05-07 02:27 33.70783 -111.50439 22729 ft 400 kts 94°
2026-05-07 02:27 33.70495 -111.47109 23159 ft 402 kts 94°
2026-05-07 02:27 33.70207 -111.43759 23559 ft 405 kts 94°
2026-05-07 02:27 33.69916 -111.40389 23906 ft 407 kts 94°
2026-05-07 02:28 33.69620 -111.36999 24237 ft 409 kts 94°
2026-05-07 02:28 33.69321 -111.33598 24594 ft 411 kts 94°
2026-05-07 02:28 33.69088 -111.30171 24941 ft 412 kts 89°
2026-05-07 02:28 33.69298 -111.26738 25275 ft 413 kts 79°
2026-05-07 02:29 33.70006 -111.23396 25606 ft 414 kts 69°
2026-05-07 02:29 33.71109 -111.20200 25936 ft 415 kts 65°
2026-05-07 02:29 33.72258 -111.17012 26256 ft 417 kts 66°
2026-05-07 02:29 33.73407 -111.13801 26589 ft 420 kts 66°
2026-05-07 02:30 33.74560 -111.10564 26911 ft 422 kts 66°
2026-05-07 02:30 33.75714 -111.07320 27243 ft 424 kts 66°
2026-05-07 02:30 33.76874 -111.04055 27561 ft 426 kts 66°
2026-05-07 02:30 33.78041 -111.00772 27870 ft 428 kts 66°
2026-05-07 02:31 33.79214 -110.97474 28163 ft 430 kts 66°
2026-05-07 02:31 33.80389 -110.94164 28450 ft 432 kts 66°
2026-05-07 02:31 33.81571 -110.90837 28744 ft 434 kts 66°
2026-05-07 02:31 33.82756 -110.87493 29039 ft 436 kts 66°
2026-05-07 02:32 33.83942 -110.84137 29327 ft 438 kts 66°
2026-05-07 02:32 33.85134 -110.80756 29614 ft 439 kts 66°
2026-05-07 02:32 33.86328 -110.77365 29913 ft 442 kts 66°
2026-05-07 02:32 33.87531 -110.73952 30179 ft 444 kts 66°
2026-05-07 02:33 33.88740 -110.70527 30391 ft 446 kts 66°
2026-05-07 02:33 33.89956 -110.67081 30633 ft 448 kts 66°
2026-05-07 02:33 33.91173 -110.63628 30919 ft 449 kts 66°
2026-05-07 02:33 33.92376 -110.60206 31177 ft 450 kts 66°
2026-05-07 02:34 33.93595 -110.56731 31426 ft 452 kts 66°
2026-05-07 02:34 33.94817 -110.53239 31678 ft 453 kts 66°
2026-05-07 02:34 33.96059 -110.49694 31928 ft 454 kts 66°
2026-05-07 02:34 33.97291 -110.46177 32157 ft 456 kts 66°
2026-05-07 02:35 33.98523 -110.42649 32380 ft 458 kts 66°
2026-05-07 02:35 33.99760 -110.39099 32579 ft 461 kts 66°
2026-05-07 02:35 34.01003 -110.35524 32788 ft 463 kts 66°
2026-05-07 02:35 34.02232 -110.31991 33022 ft 464 kts 66°
2026-05-07 02:36 34.03480 -110.28404 33294 ft 465 kts 67°
2026-05-07 02:36 34.04728 -110.24809 33574 ft 465 kts 67°
2026-05-07 02:36 34.05978 -110.21207 33870 ft 466 kts 67°
2026-05-07 02:36 34.07228 -110.17600 34141 ft 467 kts 67°
2026-05-07 02:37 34.08481 -110.13985 34357 ft 467 kts 67°
2026-05-07 02:37 34.09734 -110.10364 34592 ft 468 kts 67°
2026-05-07 02:37 34.10989 -110.06731 34816 ft 469 kts 67°
2026-05-07 02:37 34.12241 -110.03099 35033 ft 470 kts 67°
2026-05-07 02:38 34.13497 -109.99452 35136 ft 470 kts 67°
2026-05-07 02:38 34.14752 -109.95812 35162 ft 469 kts 67°
2026-05-07 02:38 34.17253 -109.88537 35153 ft 469 kts 67°
2026-05-07 02:39 34.19750 -109.81248 35126 ft 470 kts 67°
2026-05-07 02:39 34.22250 -109.73945 35091 ft 471 kts 67°
2026-05-07 02:40 34.24744 -109.66627 35050 ft 472 kts 67°
2026-05-07 02:40 34.27241 -109.59292 35057 ft 472 kts 67°
2026-05-07 02:41 34.29740 -109.51942 35081 ft 473 kts 67°
2026-05-07 02:41 34.32233 -109.44589 35054 ft 473 kts 67°
2026-05-07 02:42 34.34725 -109.37220 35072 ft 473 kts 67°
2026-05-07 02:42 34.37209 -109.29852 35078 ft 473 kts 67°
2026-05-07 02:43 34.39680 -109.22468 35072 ft 473 kts 68°
2026-05-07 02:43 34.42154 -109.15089 35054 ft 473 kts 68°
2026-05-07 02:44 34.44436 -109.07611 35024 ft 473 kts 71°
2026-05-07 02:44 34.46460 -109.00024 34990 ft 474 kts 72°
2026-05-07 02:45 34.48466 -108.92410 34965 ft 474 kts 72°
2026-05-07 02:45 34.50540 -108.84814 34961 ft 475 kts 71°
2026-05-07 02:46 34.52649 -108.77210 34960 ft 476 kts 71°
2026-05-07 02:46 34.54751 -108.69587 34967 ft 477 kts 71°
2026-05-07 02:47 34.56838 -108.61942 34969 ft 478 kts 71°
2026-05-07 02:47 34.58921 -108.54283 34977 ft 478 kts 71°
2026-05-07 02:48 34.61004 -108.46620 34982 ft 478 kts 71°
2026-05-07 02:48 34.63080 -108.38943 34983 ft 479 kts 71°
2026-05-07 02:49 34.65155 -108.31261 34984 ft 479 kts 71°
2026-05-07 02:49 34.67230 -108.23566 34986 ft 480 kts 71°
2026-05-07 02:50 34.69286 -108.15910 34984 ft 480 kts 71°
2026-05-07 02:50 34.71361 -108.08135 34987 ft 481 kts 71°
2026-05-07 02:51 34.73405 -108.00449 34987 ft 482 kts 71°
2026-05-07 02:51 34.75466 -107.92691 34989 ft 482 kts 71°
2026-05-07 02:52 34.77533 -107.84929 34989 ft 483 kts 71°
2026-05-07 02:52 34.79596 -107.77143 34988 ft 484 kts 71°
2026-05-07 02:53 34.81649 -107.69348 34987 ft 484 kts 71°
2026-05-07 02:53 34.83706 -107.61533 34988 ft 485 kts 71°
2026-05-07 02:54 34.85761 -107.53710 34986 ft 486 kts 71°
2026-05-07 02:54 34.87817 -107.45865 34983 ft 487 kts 71°
2026-05-07 02:55 34.89886 -107.37945 34985 ft 488 kts 71°
2026-05-07 02:55 34.91926 -107.30119 34984 ft 489 kts 71°
2026-05-07 02:56 34.93967 -107.22216 34984 ft 489 kts 71°
2026-05-07 02:56 34.96012 -107.14297 34995 ft 490 kts 71°
2026-05-07 02:57 34.98054 -107.06355 35036 ft 491 kts 71°
2026-05-07 02:57 35.00109 -106.98359 35072 ft 492 kts 71°
2026-05-07 02:58 35.02137 -106.90445 35105 ft 492 kts 71°
2026-05-07 02:58 35.04184 -106.82473 35127 ft 492 kts 69°
2026-05-07 02:59 35.06944 -106.74780 35139 ft 492 kts 63°
2026-05-07 02:59 35.09797 -106.67182 35107 ft 493 kts 63°
2026-05-07 03:00 35.12650 -106.59562 35107 ft 494 kts 64°
2026-05-07 03:00 35.15499 -106.51919 35090 ft 495 kts 64°
2026-05-07 03:01 35.18324 -106.44300 35094 ft 496 kts 64°
2026-05-07 03:01 35.21166 -106.36630 35062 ft 496 kts 64°
2026-05-07 03:02 35.24008 -106.28940 35028 ft 496 kts 64°
2026-05-07 03:02 35.26850 -106.21246 35020 ft 497 kts 64°
2026-05-07 03:03 35.29685 -106.13538 35047 ft 497 kts 64°
2026-05-07 03:03 35.32519 -106.05828 35072 ft 497 kts 64°
2026-05-07 03:04 35.35358 -105.98105 35084 ft 497 kts 64°
2026-05-07 03:04 35.37709 -105.91685 35090 ft 497 kts 64°
2026-05-07 03:05 35.40522 -105.83946 35092 ft 498 kts 64°
2026-05-07 03:05 35.43334 -105.76186 35092 ft 498 kts 64°
2026-05-07 03:06 35.46148 -105.68424 35085 ft 498 kts 64°
2026-05-07 03:06 35.48976 -105.60661 35107 ft 498 kts 64°
2026-05-07 03:07 35.51790 -105.52883 35139 ft 499 kts 64°
2026-05-07 03:07 35.54591 -105.45088 35178 ft 499 kts 64°
2026-05-07 03:08 35.57389 -105.37285 35209 ft 500 kts 64°
2026-05-07 03:08 35.60192 -105.29464 35221 ft 500 kts 64°
2026-05-07 03:09 35.63000 -105.21631 35234 ft 501 kts 64°
2026-05-07 03:09 35.65797 -105.13787 35234 ft 502 kts 64°
2026-05-07 03:10 35.68591 -105.05918 35232 ft 502 kts 64°
2026-05-07 03:10 35.71381 -104.98040 35229 ft 503 kts 64°
2026-05-07 03:11 35.74184 -104.90144 35230 ft 503 kts 64°
2026-05-07 03:11 35.76982 -104.82244 35222 ft 504 kts 64°
2026-05-07 03:12 35.79751 -104.74377 35212 ft 504 kts 65°
2026-05-07 03:12 35.82533 -104.66448 35210 ft 504 kts 65°
2026-05-07 03:13 35.85315 -104.58506 35209 ft 505 kts 65°
2026-05-07 03:13 35.88092 -104.50560 35209 ft 505 kts 65°
2026-05-07 03:14 35.90871 -104.42595 35209 ft 505 kts 65°
2026-05-07 03:15 35.95002 -104.30690 35211 ft 506 kts 65°
2026-05-07 03:15 35.97778 -104.22698 35209 ft 506 kts 65°
2026-05-07 03:16 36.00544 -104.14706 35214 ft 507 kts 65°
2026-05-07 03:16 36.03308 -104.06690 35209 ft 507 kts 65°
2026-05-07 03:17 36.06060 -103.98665 35223 ft 508 kts 65°
2026-05-07 03:17 36.08809 -103.90625 35228 ft 508 kts 65°
2026-05-07 03:18 36.11563 -103.82575 35221 ft 508 kts 65°
2026-05-07 03:18 36.14290 -103.74564 35229 ft 509 kts 65°
2026-05-07 03:19 36.17035 -103.66490 35225 ft 509 kts 65°
2026-05-07 03:19 36.19782 -103.58400 35228 ft 510 kts 65°
2026-05-07 03:20 36.22524 -103.50301 35227 ft 510 kts 65°
2026-05-07 03:20 36.25262 -103.42185 35231 ft 511 kts 65°
2026-05-07 03:21 36.27994 -103.34065 35242 ft 511 kts 65°
2026-05-07 03:21 36.30715 -103.25920 35247 ft 511 kts 66°
2026-05-07 03:22 36.33440 -103.17771 35249 ft 512 kts 65°
2026-05-07 03:22 36.36162 -103.09620 35253 ft 512 kts 66°
2026-05-07 03:23 36.38880 -103.01444 35248 ft 512 kts 66°
2026-05-07 03:23 36.41598 -102.93262 35238 ft 513 kts 66°
2026-05-07 03:24 36.44314 -102.85064 35232 ft 514 kts 66°
2026-05-07 03:24 36.47021 -102.76853 35226 ft 514 kts 66°
2026-05-07 03:25 36.49729 -102.68625 35219 ft 514 kts 66°
2026-05-07 03:25 36.52429 -102.60391 35219 ft 515 kts 66°
2026-05-07 03:26 36.55127 -102.52139 35220 ft 515 kts 66°
2026-05-07 03:26 36.57819 -102.43887 35219 ft 515 kts 66°
2026-05-07 03:27 36.60513 -102.35621 35214 ft 516 kts 66°
2026-05-07 03:27 36.63198 -102.27339 35212 ft 516 kts 66°
2026-05-07 03:28 36.65883 -102.19037 35221 ft 517 kts 66°
2026-05-07 03:28 36.68553 -102.10728 35217 ft 517 kts 66°
2026-05-07 03:29 36.71234 -102.02400 35233 ft 518 kts 66°
2026-05-07 03:29 36.73918 -101.94064 35242 ft 518 kts 66°
2026-05-07 03:30 36.76589 -101.85720 35248 ft 518 kts 66°
2026-05-07 03:30 36.79256 -101.77356 35254 ft 519 kts 66°
2026-05-07 03:31 36.81912 -101.68989 35239 ft 519 kts 66°
2026-05-07 03:31 36.84567 -101.60609 35242 ft 519 kts 66°
2026-05-07 03:32 36.87224 -101.52226 35242 ft 519 kts 67°
2026-05-07 03:32 36.89871 -101.43822 35240 ft 520 kts 67°
2026-05-07 03:33 36.92508 -101.35411 35249 ft 520 kts 67°
2026-05-07 03:33 36.95148 -101.26987 35252 ft 521 kts 67°
2026-05-07 03:34 36.97783 -101.18551 35258 ft 521 kts 67°
2026-05-07 03:34 37.00399 -101.10157 35261 ft 521 kts 67°
2026-05-07 03:35 37.03021 -101.01697 35263 ft 522 kts 67°
2026-05-07 03:35 37.05612 -100.93198 35264 ft 523 kts 69°
2026-05-07 03:36 37.08043 -100.84619 35263 ft 523 kts 70°
2026-05-07 03:36 37.10406 -100.75997 35260 ft 524 kts 70°
2026-05-07 03:37 37.12795 -100.67373 35250 ft 524 kts 70°
2026-05-07 03:37 37.15215 -100.58744 35247 ft 525 kts 70°
2026-05-07 03:38 37.17649 -100.50043 35238 ft 526 kts 70°
2026-05-07 03:38 37.20055 -100.41372 35230 ft 527 kts 70°
2026-05-07 03:39 37.22456 -100.32684 35234 ft 527 kts 70°
2026-05-07 03:39 37.24855 -100.23980 35221 ft 528 kts 70°
2026-05-07 03:40 37.27247 -100.15258 35223 ft 529 kts 70°
2026-05-07 03:40 37.29642 -100.06525 35224 ft 529 kts 70°
2026-05-07 03:41 37.32037 -99.97776 35212 ft 530 kts 70°
2026-05-07 03:41 37.34419 -99.89011 35211 ft 530 kts 70°
2026-05-07 03:42 37.36800 -99.80231 35211 ft 531 kts 70°
2026-05-07 03:42 37.39183 -99.71440 35210 ft 532 kts 71°
2026-05-07 03:43 37.41562 -99.62629 35206 ft 532 kts 71°
2026-05-07 03:43 37.43921 -99.53798 35203 ft 533 kts 71°
2026-05-07 03:44 37.46281 -99.44956 35199 ft 534 kts 71°
2026-05-07 03:44 37.48632 -99.36151 35207 ft 534 kts 71°
2026-05-07 03:45 37.50990 -99.27283 35204 ft 535 kts 71°
2026-05-07 03:45 37.53341 -99.18391 35203 ft 535 kts 71°
2026-05-07 03:46 37.55696 -99.09493 35199 ft 535 kts 71°
2026-05-07 03:46 37.58041 -99.00585 35199 ft 536 kts 71°
2026-05-07 03:47 37.60377 -98.91665 35196 ft 536 kts 71°
2026-05-07 03:47 37.62685 -98.82780 35198 ft 537 kts 71°
2026-05-07 03:48 37.65019 -98.73824 35200 ft 538 kts 71°
2026-05-07 03:48 37.67348 -98.64846 35202 ft 539 kts 72°
2026-05-07 03:49 37.69670 -98.55856 35204 ft 539 kts 72°
2026-05-07 03:49 37.71992 -98.46840 35203 ft 540 kts 72°
2026-05-07 03:50 37.74289 -98.37868 35194 ft 541 kts 72°
2026-05-07 03:50 37.76587 -98.28812 35173 ft 542 kts 72°
2026-05-07 03:51 37.78892 -98.19740 35173 ft 542 kts 72°
2026-05-07 03:51 37.81203 -98.10657 35180 ft 543 kts 72°
2026-05-07 03:52 37.83515 -98.01570 35178 ft 543 kts 72°
2026-05-07 03:52 37.85814 -97.92457 35179 ft 544 kts 73°
2026-05-07 03:53 37.88098 -97.83321 35184 ft 545 kts 73°
2026-05-07 03:53 37.90369 -97.74225 35181 ft 546 kts 73°
2026-05-07 03:54 37.92654 -97.65056 35180 ft 546 kts 73°
2026-05-07 03:54 37.94929 -97.55872 35181 ft 547 kts 73°
2026-05-07 03:55 37.97200 -97.46675 35188 ft 547 kts 73°
2026-05-07 03:55 37.99474 -97.37451 35195 ft 548 kts 73°
2026-05-07 03:56 38.01743 -97.28221 35194 ft 549 kts 73°
2026-05-07 03:56 38.02874 -97.23615 35015 ft 545 kts 73°
2026-05-07 03:56 38.03634 -97.20521 34860 ft 542 kts 73°
2026-05-07 03:56 38.04748 -97.15971 34628 ft 539 kts 73°
2026-05-07 03:57 38.05858 -97.11429 34398 ft 538 kts 73°
2026-05-07 03:57 38.06957 -97.06905 34172 ft 536 kts 73°
2026-05-07 03:57 38.08047 -97.02391 33905 ft 534 kts 73°
2026-05-07 03:57 38.09130 -96.97892 33641 ft 532 kts 73°
2026-05-07 03:58 38.10208 -96.93409 33374 ft 529 kts 73°
2026-05-07 03:58 38.11278 -96.88953 33112 ft 526 kts 73°
2026-05-07 03:58 38.12343 -96.84524 32644 ft 524 kts 73°
2026-05-07 03:58 38.13410 -96.80088 32038 ft 525 kts 73°
2026-05-07 03:59 38.14477 -96.75658 31462 ft 524 kts 73°
2026-05-07 03:59 38.15543 -96.71232 30883 ft 524 kts 72°
2026-05-07 03:59 38.16604 -96.66817 30383 ft 521 kts 72°
2026-05-07 03:59 38.17636 -96.62493 30000 ft 515 kts 72°
2026-05-07 04:00 38.18666 -96.58153 29372 ft 509 kts 72°
2026-05-07 04:00 38.19677 -96.53882 28509 ft 499 kts 72°
2026-05-07 04:00 38.20652 -96.49748 28141 ft 479 kts 72°
2026-05-07 04:00 38.21593 -96.45754 27639 ft 465 kts 72°
2026-05-07 04:01 38.22510 -96.41863 26990 ft 456 kts 72°
2026-05-07 04:01 38.23414 -96.38024 26269 ft 450 kts 71°
2026-05-07 04:01 38.24307 -96.34243 25575 ft 444 kts 71°
2026-05-07 04:01 38.25190 -96.30509 24886 ft 437 kts 71°
2026-05-07 04:02 38.26051 -96.26851 24466 ft 423 kts 71°
2026-05-07 04:02 38.26886 -96.23296 23794 ft 418 kts 71°
2026-05-07 04:02 38.27713 -96.19770 23076 ft 411 kts 71°
2026-05-07 04:02 38.28630 -96.16370 22360 ft 402 kts 62°
2026-05-07 04:03 38.29912 -96.13262 21622 ft 392 kts 52°
2026-05-07 04:03 38.31512 -96.10527 21137 ft 375 kts 41°
2026-05-07 04:03 38.33256 -96.08129 21067 ft 367 kts 40°
2026-05-07 04:03 38.34974 -96.05764 20992 ft 370 kts 40°
2026-05-07 04:04 38.36715 -96.03348 20910 ft 370 kts 41°
2026-05-07 04:04 38.38453 -96.00930 20829 ft 370 kts 41°
2026-05-07 04:04 38.40186 -95.98515 20745 ft 369 kts 41°
2026-05-07 04:04 38.41923 -95.96099 20667 ft 369 kts 41°
2026-05-07 04:05 38.43658 -95.93693 20574 ft 369 kts 41°
2026-05-07 04:05 38.45393 -95.91285 20241 ft 368 kts 41°
2026-05-07 04:05 38.47118 -95.88888 19869 ft 366 kts 41°
2026-05-07 04:05 38.48840 -95.86491 19486 ft 365 kts 41°
2026-05-07 04:06 38.50552 -95.84107 19109 ft 364 kts 41°
2026-05-07 04:06 38.52262 -95.81726 18728 ft 363 kts 41°
2026-05-07 04:06 38.53968 -95.79350 18333 ft 363 kts 42°
2026-05-07 04:06 38.55667 -95.76975 17932 ft 361 kts 42°
2026-05-07 04:07 38.57331 -95.74648 17571 ft 358 kts 42°
2026-05-07 04:07 38.59010 -95.72300 17124 ft 358 kts 43°
2026-05-07 04:07 38.60716 -95.69916 16694 ft 357 kts 43°
2026-05-07 04:07 38.62363 -95.67613 16315 ft 355 kts 43°
2026-05-07 04:08 38.64022 -95.65294 15934 ft 352 kts 44°
2026-05-07 04:08 38.65667 -95.62991 15562 ft 350 kts 44°
2026-05-07 04:08 38.67303 -95.60696 15181 ft 348 kts 44°
2026-05-07 04:08 38.68925 -95.58415 14810 ft 345 kts 44°
2026-05-07 04:09 38.70533 -95.56146 14445 ft 343 kts 45°
2026-05-07 04:09 38.72133 -95.53892 14066 ft 341 kts 45°
2026-05-07 04:09 38.73724 -95.51657 13674 ft 338 kts 45°
2026-05-07 04:09 38.75301 -95.49440 13306 ft 335 kts 45°
2026-05-07 04:10 38.76858 -95.47244 12942 ft 331 kts 45°
2026-05-07 04:10 38.78398 -95.45074 12576 ft 328 kts 45°
2026-05-07 04:10 38.79926 -95.42921 12221 ft 325 kts 45°
2026-05-07 04:10 38.81436 -95.40790 11896 ft 320 kts 45°
2026-05-07 04:11 38.82922 -95.38699 11780 ft 317 kts 44°
2026-05-07 04:11 38.84407 -95.36615 11609 ft 316 kts 44°
2026-05-07 04:11 38.85890 -95.34536 11450 ft 315 kts 44°
2026-05-07 04:11 38.87363 -95.32461 11289 ft 314 kts 44°
2026-05-07 04:12 38.88831 -95.30394 11133 ft 313 kts 44°
2026-05-07 04:12 38.90294 -95.28339 10963 ft 311 kts 44°
2026-05-07 04:12 38.91752 -95.26286 10805 ft 310 kts 44°
2026-05-07 04:12 38.93197 -95.24238 10639 ft 309 kts 45°
2026-05-07 04:13 38.94634 -95.22193 10481 ft 308 kts 45°
2026-05-07 04:13 38.96065 -95.20156 10318 ft 306 kts 44°
2026-05-07 04:13 38.97490 -95.18129 10159 ft 305 kts 45°
2026-05-07 04:13 38.99003 -95.16268 9917 ft 297 kts 34°
2026-05-07 04:14 39.00607 -95.14662 9825 ft 292 kts 34°
2026-05-07 04:14 39.02207 -95.13055 9681 ft 291 kts 34°
2026-05-07 04:14 39.03801 -95.11452 9520 ft 290 kts 34°
2026-05-07 04:14 39.05384 -95.09854 9380 ft 289 kts 34°
2026-05-07 04:15 39.06958 -95.08260 9231 ft 288 kts 34°
2026-05-07 04:15 39.08528 -95.06670 9064 ft 286 kts 35°
2026-05-07 04:15 39.10089 -95.05089 8927 ft 285 kts 35°
2026-05-07 04:15 39.11644 -95.03517 8770 ft 284 kts 35°
2026-05-07 04:16 39.13171 -95.01975 8624 ft 282 kts 35°
2026-05-07 04:16 39.14736 -95.00395 8472 ft 281 kts 35°
2026-05-07 04:16 39.16250 -94.98862 8325 ft 280 kts 35°
2026-05-07 04:16 39.17796 -94.97292 8174 ft 279 kts 35°
2026-05-07 04:17 39.19316 -94.95748 8015 ft 278 kts 35°
2026-05-07 04:17 39.20833 -94.94210 7883 ft 277 kts 35°
2026-05-07 04:17 39.22343 -94.92678 7730 ft 276 kts 35°
2026-05-07 04:17 39.23825 -94.91173 7590 ft 275 kts 35°
2026-05-07 04:18 39.25323 -94.89646 7448 ft 272 kts 35°
2026-05-07 04:18 39.26782 -94.88155 7332 ft 262 kts 35°
2026-05-07 04:18 39.28184 -94.86722 7223 ft 252 kts 35°
2026-05-07 04:18 39.29534 -94.85344 7118 ft 243 kts 34°
2026-05-07 04:19 39.30910 -94.84137 7012 ft 236 kts 21°
2026-05-07 04:19 39.32452 -94.83488 7009 ft 233 kts
2026-05-07 04:19 39.34032 -94.83035 7012 ft 233 kts
2026-05-07 04:19 39.35626 -94.82564 6709 ft 239 kts 10°
2026-05-07 04:20 39.37231 -94.82087 6219 ft 233 kts 10°
2026-05-07 04:20 39.38796 -94.81622 5799 ft 230 kts 10°
2026-05-07 04:20 39.40358 -94.81159 5394 ft 230 kts 10°
2026-05-07 04:21 39.43367 -94.79661 4389 ft 243 kts 39°
2026-05-07 04:21 39.44375 -94.77919 4090 ft 240 kts 59°
2026-05-07 04:21 39.44906 -94.75903 3802 ft 237 kts 82°
2026-05-07 04:21 39.44808 -94.73797 3428 ft 237 kts 104°
2026-05-07 04:22 39.44099 -94.71916 3219 ft 228 kts 128°
2026-05-07 04:22 39.42984 -94.70587 3106 ft 209 kts 149°
2026-05-07 04:22 39.41699 -94.69868 2933 ft 197 kts 167°
2026-05-07 04:22 39.40364 -94.69720 2713 ft 191 kts 186°
2026-05-07 04:23 39.39125 -94.70034 2495 ft 173 kts 195°
2026-05-07 04:23 39.38016 -94.70360 2271 ft 156 kts 195°
2026-05-07 04:23 39.36984 -94.70670 1994 ft 151 kts 195°
2026-05-07 04:23 39.35981 -94.70972 1746 ft 144 kts 193°
2026-05-07 04:24 39.35019 -94.71261 1574 ft 140 kts 194°
2026-05-07 04:24 39.34080 -94.71542 1396 ft 138 kts 193°
2026-05-07 04:24 39.33150 -94.71816 1263 ft 137 kts 193°
2026-05-07 04:24 39.32221 -94.72084 1078 ft 137 kts 193°
2026-05-07 04:25 39.31347 -94.72346 1015 ft 113 kts 193°
2026-05-07 04:25 39.30748 -94.72521 1012 ft 63 kts 192°
2026-05-07 04:25 39.30479 -94.72580 1014 ft 26 kts 173°
2026-05-07 04:25 39.30328 -94.72508 1014 ft 19 kts 150°
2026-05-07 04:26 39.30265 -94.72419 1014 ft 13 kts 127°
2026-05-07 04:26 39.30194 -94.72355 1014 ft 8 kts 143°
2026-05-07 04:26 39.30189 -94.72350 1014 ft 0 kts 140°
2026-05-07 04:28 39.30184 -94.72344 1014 ft 2 kts 134°
2026-05-07 04:29 39.30171 -94.72304 1014 ft 7 kts 106°
2026-05-07 04:29 39.30162 -94.72243 1014 ft 5 kts 98°
2026-05-07 04:29 39.30158 -94.72202 1014 ft 3 kts 111°
2026-05-07 04:29 39.30134 -94.72192 1014 ft 4 kts 184°
2026-05-07 04:30 39.30111 -94.72200 1014 ft 2 kts 193°
2026-05-07 04:30 39.30095 -94.72204 1014 ft 1 kts 192°